Voltar ao catálogo

STARLINK-31822

AtivoComunicaçõesVLEO
NORAD 59752·PAYLOAD·🇺🇸 United States

Lançado May 13, 2024 de Cape Canaveral Space Force Station

Loading…

Próximas Passagens (próximas 24 horas)

TLE

AtualizadoSource: CelesTrak SupGP

Época: Sep 15, 2026, 02:02 UTC

1 59752C 24090Y   26258.08520833 -.00013307  00000+0 -48207-3 0  2582
2 59752  43.0011 193.7683 0001053 267.9449 217.0260 15.27579311    16

Acompanhe STARLINK-31822 em tempo real com AllMySat

Download on the App Store